{"data":{"norad_id":58209,"intl_designator":"2023-170D","name":"STARLINK-30839","alt_names":[],"object_type":"PAYLOAD","status":"ACTIVE","operator":null,"country":"US","launch_date":"2023-11-03","launch_site_code":"AFETR","launch_vehicle":null,"mission":null,"orbit_class":"UNKNOWN","rcs_meters":null,"size_class":null,"mass_kg":null,"dimensions":null,"purposes":["comms"],"wikipedia_slug":null,"has_3d_model":false,"image_url":null,"decayed_at":null,"tle_current":{"epoch":"2026-09-20T03:39:15.698592Z","epoch_age_seconds":173694,"freshness":"STALE","line1":"1 58209U 23170D   26263.15226503 -.00000135  00000+0  46066-5 0  9996","line2":"2 58209  43.0033 175.6980 0001162 270.9009  89.1710 15.27575104160046","mean_motion":15.27575104,"eccentricity":0.0001162,"inclination_deg":43.0033,"raan_deg":175.698,"arg_perigee_deg":270.9009,"mean_anomaly_deg":89.171,"bstar":4.6066e-6,"rev_number":16004,"period_min":94.267050846097,"perigee_km":482.26648493624,"apogee_km":483.86102799204,"semimajor_km":6861.2007564641,"source":"CELESTRAK","updated_at":"2026-09-21T09:00:33.831538Z"}}}